Temp
13 13 13 13 13 13 13 13 12 12 12 11 11 10 10 10 10 10 10 9 9 9 9 9 9 9 9 9 9 9 9 9 9 9 9 9 9 9 9 8 8 7
13 13 13 13 13 13 13 13 13 12 12 11 11 10 10 10 10 10 10 9 9 9 9 9 9 9 9 9 9 9 9 9 9 8 8 8 8 8 8 8 8 8
13 13 13 13 13 13 13 13 13 12 12 11 11 10 10 10 10 10 10 9 9 9 9 9 9 9 9 9 9 9 9 9 9 9 8 8 8 8 8 7 7 7
13 13 13 13 13 13 13 13 13 12 12 11 11 10 10 10 10 10 10 9 9 9 9 8 9 9 9 9 9 9 9 9 9 9 8 8 8 8 7 7 7 7
13 13 13 13 13 13 12 12 13 12 12 11 11 10 10 10 10 10 10 9 9 9 9 8 8 8 8 8 8 9 9 9 9 9 9 9 9 8 8 8 7 7
13 13 13 13 13 13 12 12 12 12 12 11 11 10 10 10 10 10 9 9 9 9 9 9 9 9 9 8 8 8 8 8 8 8 8 8 8 8 8 8 8 7
13 13 13 13 13 13 12 12 12 12 12 11 11 10 10 10 10 9 9 9 9 9 8 9 9 9 9 8 8 8 8 8 8 8 8 8 8 8 8 8 8 8
13 13 13 13 12 12 12 12 12 12 11 11 10 10 10 10 10 9 9 9 9 8 8 8 9 9 8 8 9 9 8 8 8 8 8 8 8 7 7 7 7 7
13 13 13 13 13 12 12 12 12 12 11 11 10 10 10 9 9 9 9 9 8 8 8 8 8 8 8 8 9 9 9 9 8 8 8 8 8 8 7 7 7 6
13 13 13 13 13 13 12 12 12 12 11 10 10 10 9 9 9 9 8 8 8 8 8 8 8 8 8 8 8 8 8 8 8 8 8 8 8 7 7 7 7 6
13 13 13 13 13 13 12 12 12 11 11 10 10 9 9 9 9 8 8 8 8 8 8 8 8 8 8 8 8 8 8 8 8 7 7 7 7 7 7 7 6 6
13 14 13 13 13 13 12 12 11 11 11 10 10 9 9 9 8 8 8 8 8 8 8 8 7 7 8 8 8 8 7 7 7 7 7 7 7 7 7 6 6 6
12 13 13 13 13 13 12 11 11 11 11 10 10 9 9 8 8 8 8 8 8 8 7 7 7 7 7 7 7 7 7 6 6 6 6 6 6 6 6 6 6 6
12 12 13 13 13 13 12 11 11 11 11 10 10 9 9 8 8 8 8 7 7 7 7 7 7 7 7 6 6 6 6 6 6 6 6 6 6 6 6 6 6 5
11 12 12 12 12 12 12 12 11 11 10 10 10 9 8 8 8 7 7 7 7 7 7 7 7 7 6 6 5 5 5 5 5 5 5 5 5 5 5 5 5 5
11 11 11 11 11 11 11 12 11 10 10 10 9 9 8 8 7 7 7 7 7 6 7 6 6 6 5 5 5 5 5 4 4 4 4 4 4 4 4 4 4 4
11 11 11 11 11 11 11 11 11 10 10 9 9 8 8 7 7 7 7 6 6 6 6 6 5 5 5 5 5 4 4 3 3 3 3 3 3 3 3 3 3 3
12 11 11 11 10 10 11 11 10 10 9 9 8 8 7 7 7 6 6 6 6 6 5 5 5 5 5 4 4 3 3 3 3 3 3 3 3 3 3 3 3 3
11 11 10 10 10 10 10 9 8 9 8 7 7 7 7 6 6 6 6 6 5 5 5 5 5 5 4 4 4 3 3 3 3 3 2 2 2 2 2 2 2 2
10 10 9 9 9 9 9 9 8 8 7 7 6 6 6 6 6 5 5 5 5 5 5 5 5 4 4 3 3 3 3 3 3 2 2 2 2 2 2 2 2 2
10 9 8 8 8 9 8 8 8 7 6 6 6 6 6 6 5 5 5 5 5 5 5 5 4 4 3 3 3 3 3 2 2 2 2 1 2 1 1 1 1 1
10 9 8 7 8 8 8 8 7 6 6 6 6 5 5 5 4 4 4 4 4 4 4 4 3 3 3 3 2 2 2 2 1 1 1 1 1 1 0 0 0 1
10 9 8 7 7 7 7 7 7 7 6 6 6 5 5 4 4 4 4 4 4 4 4 3 3 3 2 2 2 2 1 1 1 0 -0 -0 -0 -0 -0 -0 -0 -0
9 8 7 7 7 7 7 6 6 6 6 5 5 5 5 4 4 4 4 4 4 3 3 3 3 2 2 1 1 1 1 0 0 -0 -0 -1 -1 -1 -1 -1 -1 -1
8 7 7 6 7 7 6 6 6 6 5 5 5 5 5 5 4 4 4 3 3 3 3 2 2 2 1 1 1 1 0 -0 -0 -0 -1 -1 -1 -1 -1 -1 -1 -1
7 7 6 6 6 6 6 6 6 5 5 5 5 5 5 5 4 4 3 3 3 3 2 2 2 1 1 1 0 0 0 -0 -0 -0 -1 -1 -1 -1 -2 -2 -2 -2
Height
1521 1522 1524 1525 1526 1527 1528 1528 1528 1529 1530 1530 1531 1531 1532 1532 1532 1532 1533 1533 1533 1533 1533 1532 1532 1532 1532 1532 1531 1531 1531 1530 1530 1530 1530 1530 1530 1529 1529 1529 1529 1529
1519 1521 1522 1523 1525 1526 1526 1527 1527 1528 1528 1529 1530 1530 1530 1531 1531 1532 1532 1532 1532 1532 1532 1532 1532 1532 1531 1531 1531 1531 1530 1530 1529 1529 1529 1529 1529 1528 1528 1528 1527 1527
1518 1519 1520 1522 1523 1524 1525 1526 1526 1527 1527 1528 1528 1529 1529 1529 1530 1530 1531 1531 1531 1531 1531 1531 1531 1531 1531 1531 1531 1530 1530 1529 1529 1528 1528 1527 1527 1527 1527 1527 1526 1526
1516 1517 1518 1520 1521 1523 1524 1525 1525 1525 1526 1527 1527 1528 1528 1528 1529 1529 1529 1530 1530 1530 1530 1530 1530 1530 1530 1530 1530 1529 1529 1528 1528 1527 1527 1526 1526 1525 1525 1525 1525 1524
1515 1515 1517 1518 1520 1521 1522 1523 1524 1524 1525 1525 1526 1527 1527 1527 1527 1528 1528 1528 1528 1528 1528 1528 1528 1528 1528 1528 1528 1527 1527 1527 1526 1526 1526 1525 1525 1524 1523 1523 1522 1522
1514 1515 1515 1517 1518 1519 1520 1521 1522 1522 1523 1524 1525 1525 1526 1526 1526 1527 1527 1527 1527 1527 1527 1527 1527 1527 1527 1527 1526 1526 1525 1525 1524 1524 1524 1523 1523 1523 1522 1521 1520 1520
1510 1512 1513 1515 1516 1516 1518 1519 1520 1521 1521 1522 1523 1524 1524 1525 1525 1525 1526 1526 1526 1526 1526 1525 1525 1525 1525 1525 1525 1524 1524 1523 1523 1522 1522 1521 1521 1521 1520 1520 1519 1518
1507 1509 1511 1512 1513 1514 1515 1517 1518 1519 1519 1520 1520 1521 1522 1523 1524 1524 1524 1525 1524 1524 1524 1524 1524 1524 1524 1524 1523 1523 1522 1522 1521 1521 1520 1519 1519 1518 1518 1517 1517 1516
1504 1506 1508 1510 1511 1512 1513 1514 1515 1517 1517 1518 1519 1519 1520 1520 1521 1522 1523 1523 1523 1523 1523 1523 1523 1523 1522 1522 1522 1521 1521 1520 1519 1519 1518 1517 1517 1516 1515 1515 1514 1513
1502 1504 1506 1507 1508 1509 1510 1512 1513 1514 1515 1516 1517 1517 1518 1518 1519 1519 1520 1520 1521 1521 1522 1522 1521 1521 1521 1520 1519 1519 1518 1518 1517 1516 1516 1515 1515 1514 1513 1512 1511 1511
1499 1500 1501 1503 1505 1506 1508 1510 1511 1512 1513 1514 1515 1515 1516 1516 1517 1517 1517 1518 1518 1519 1519 1519 1519 1519 1519 1518 1517 1516 1516 1515 1514 1514 1514 1513 1512 1511 1511 1510 1509 1508
1493 1493 1495 1497 1500 1503 1505 1507 1509 1510 1511 1512 1513 1513 1514 1514 1515 1515 1515 1515 1516 1517 1517 1516 1517 1517 1516 1516 1515 1514 1513 1513 1512 1512 1511 1510 1509 1508 1508 1507 1506 1505
1487 1488 1489 1492 1495 1498 1501 1503 1506 1507 1508 1509 1510 1511 1512 1513 1513 1513 1513 1514 1514 1514 1514 1514 1514 1514 1513 1513 1512 1512 1511 1511 1510 1509 1508 1507 1506 1505 1504 1504 1503 1503
1483 1484 1486 1488 1491 1494 1497 1499 1502 1504 1505 1506 1508 1509 1510 1511 1512 1512 1512 1512 1512 1512 1512 1512 1511 1511 1510 1510 1510 1510 1509 1508 1507 1506 1505 1504 1503 1502 1501 1501 1500 1500
1480 1481 1483 1485 1488 1491 1494 1495 1496 1499 1501 1503 1504 1506 1507 1509 1510 1511 1511 1511 1510 1510 1510 1510 1510 1509 1508 1508 1508 1507 1507 1506 1504 1503 1502 1501 1500 1499 1498 1498 1497 1497
1477 1478 1480 1482 1484 1487 1490 1491 1492 1494 1496 1498 1500 1502 1504 1505 1507 1509 1509 1509 1508 1508 1509 1509 1508 1507 1506 1506 1506 1505 1504 1503 1501 1500 1499 1498 1497 1496 1495 1495 1494 1493
1475 1476 1477 1479 1481 1484 1486 1486 1487 1489 1491 1494 1497 1498 1500 1502 1504 1506 1507 1507 1506 1506 1507 1507 1507 1506 1505 1504 1503 1502 1501 1500 1499 1498 1497 1496 1494 1493 1492 1491 1491 1490
1474 1474 1475 1476 1478 1481 1482 1481 1482 1485 1486 1489 1493 1495 1497 1499 1501 1503 1505 1505 1505 1505 1505 1505 1505 1504 1503 1502 1501 1499 1498 1497 1496 1495 1494 1493 1492 1491 1490 1488 1487 1486
1472 1473 1473 1474 1476 1478 1478 1479 1483 1485 1485 1488 1491 1493 1495 1498 1500 1501 1503 1503 1504 1503 1503 1503 1503 1502 1501 1499 1498 1497 1496 1495 1494 1493 1492 1491 1490 1488 1487 1485 1484 1482
1470 1470 1471 1472 1474 1475 1476 1478 1482 1483 1484 1487 1490 1492 1494 1496 1498 1500 1501 1502 1502 1502 1502 1501 1501 1500 1498 1497 1496 1495 1494 1492 1491 1490 1489 1488 1487 1485 1484 1482 1480 1479
1467 1467 1468 1469 1471 1471 1472 1475 1478 1479 1481 1484 1487 1490 1492 1494 1496 1497 1499 1500 1500 1501 1501 1500 1499 1497 1496 1495 1494 1493 1491 1490 1488 1487 1486 1484 1483 1482 1480 1478 1477 1475
1463 1463 1464 1465 1466 1467 1469 1471 1473 1475 1479 1481 1484 1487 1489 1490 1492 1495 1496 1497 1499 1499 1499 1498 1497 1495 1494 1493 1491 1490 1488 1487 1485 1484 1482 1481 1479 1478 1476 1474 1473 1471
1460 1460 1460 1461 1462 1464 1466 1468 1469 1471 1475 1478 1480 1481 1483 1486 1489 1491 1493 1494 1495 1496 1496 1496 1495 1493 1492 1490 1489 1487 1485 1484 1482 1480 1478 1476 1475 1473 1471 1469 1468 1466
1455 1456 1456 1457 1459 1460 1462 1465 1467 1469 1472 1475 1476 1477 1480 1484 1487 1489 1490 1491 1492 1492 1493 1493 1492 1491 1490 1488 1487 1485 1483 1480 1478 1476 1474 1472 1470 1468 1466 1464 1462 1461
1451 1452 1453 1455 1456 1457 1459 1462 1466 1469 1471 1473 1474 1476 1478 1481 1484 1486 1487 1489 1489 1489 1489 1489 1489 1489 1488 1486 1485 1483 1480 1478 1475 1473 1470 1468 1465 1463 1460 1458 1457 1455
1448 1449 1450 1452 1453 1454 1457 1461 1464 1468 1470 1472 1473 1475 1477 1478 1480 1482 1484 1486 1486 1487 1486 1487 1487 1486 1486 1484 1482 1480 1478 1475 1473 1470 1467 1464 1461 1458 1455 1453 1451 1450
Wind_Speed
21 20 19 18 15 11 10 9 8 7 7 6 6 6 6 6 5 4 3 2 1 1 1 2 3 4 4 4 4 5 6 6 6 6 7 7 8 8 9 10 11 11
23 22 22 21 19 15 12 11 9 8 8 8 7 7 8 8 7 5 4 3 2 2 2 3 4 5 5 5 6 6 7 8 9 9 9 9 8 8 9 10 11 12
25 25 24 23 21 18 15 13 11 10 10 9 9 9 10 9 8 7 5 4 3 3 4 5 6 6 6 6 6 7 8 9 10 11 11 12 11 10 10 10 11 12
28 27 25 25 23 20 18 16 13 12 12 12 11 11 11 10 9 8 7 5 4 5 6 7 8 8 7 7 8 9 10 11 12 12 13 13 13 13 12 12 12 13
29 28 26 25 24 22 20 18 16 15 14 13 13 12 13 12 11 9 8 7 6 7 8 9 10 10 9 9 10 11 12 13 14 15 15 15 15 15 16 16 16 16
30 31 28 26 25 24 22 20 18 17 16 15 14 14 14 13 12 11 9 9 8 9 10 11 12 12 11 11 12 13 14 15 15 16 17 17 17 18 18 19 19 19
32 32 31 29 27 25 24 22 20 19 18 17 16 16 15 15 13 12 11 11 11 11 12 13 14 13 13 13 13 14 15 16 17 18 18 19 20 21 21 21 21 21
32 32 32 31 29 28 26 24 22 20 19 19 18 18 17 16 15 15 14 14 14 15 15 15 15 15 15 15 15 16 17 17 18 19 20 21 22 23 23 23 22 21
36 35 34 33 32 31 29 27 24 21 21 21 20 19 19 18 18 17 17 17 18 18 17 17 17 17 17 17 18 18 18 19 20 20 21 23 24 24 25 24 24 23
40 39 38 36 34 33 32 29 25 23 22 23 22 21 21 21 20 20 21 21 21 20 19 19 19 19 18 19 19 19 20 20 21 22 22 23 24 25 25 26 25 25
39 40 43 42 38 36 36 33 27 24 24 24 24 23 22 22 23 23 24 23 22 21 21 20 20 20 20 20 20 20 21 21 22 23 23 24 25 25 26 26 26 26
40 42 45 45 40 38 39 37 31 26 26 26 25 24 23 24 25 25 25 24 23 22 22 21 20 21 21 20 20 21 22 23 23 24 25 25 26 26 27 26 26 26
39 42 45 47 44 39 38 39 35 29 28 27 26 24 24 24 26 26 26 24 24 23 22 21 21 21 21 20 21 22 23 24 25 26 27 28 28 28 28 27 27 27
33 39 43 46 46 43 39 37 36 34 30 28 26 24 23 24 26 26 25 24 23 22 21 21 21 21 20 21 21 22 24 25 27 28 29 30 29 29 28 27 28 27
26 34 39 41 43 44 42 38 37 37 34 29 26 23 22 23 25 25 25 24 23 22 21 21 20 20 20 21 22 23 25 27 28 29 29 29 28 27 27 27 27 27
21 26 31 34 38 42 44 42 39 38 36 31 26 22 21 23 24 25 24 23 22 22 21 20 19 19 20 21 23 24 26 27 28 28 27 27 26 27 27 27 27 28
20 22 24 28 33 38 43 45 42 39 38 33 26 22 21 22 23 23 23 22 22 21 19 19 19 20 21 22 23 25 26 26 26 25 24 24 25 26 27 28 28 29
19 21 23 27 30 34 42 47 42 40 40 34 26 23 22 22 22 22 23 22 20 19 18 18 20 21 22 23 24 24 25 25 24 24 23 23 24 25 26 28 29 30
19 21 24 28 30 34 42 43 39 38 37 29 23 22 22 22 22 22 21 20 19 17 17 19 21 22 22 23 23 23 23 24 24 24 24 24 25 26 27 29 30 31
20 21 24 29 32 36 40 39 38 38 35 26 23 23 22 21 20 18 18 18 17 17 19 21 22 22 21 21 21 21 22 23 24 24 25 26 27 28 29 30 31 32
22 22 24 29 33 37 39 38 37 37 31 25 24 22 20 18 17 16 17 17 17 19 21 21 21 20 19 19 20 21 22 23 24 25 27 29 30 30 31 32 32 32
23 23 24 27 32 36 37 37 38 36 27 23 24 22 18 16 14 14 15 17 19 21 21 20 19 18 18 19 21 22 22 23 25 27 29 31 32 33 34 35 35 34
24 23 24 26 30 33 34 36 39 36 29 27 28 24 18 14 13 14 15 17 19 20 19 18 17 16 17 19 21 22 23 24 26 28 31 33 34 36 37 38 38 37
23 23 24 26 28 30 32 35 35 31 30 30 27 21 17 14 13 13 15 17 17 17 17 16 14 15 17 20 21 22 23 24 27 29 32 35 36 38 39 41 41 41
22 22 23 25 27 30 31 33 32 30 31 28 22 19 18 15 12 11 13 14 15 15 14 13 14 15 17 19 21 21 23 25 27 31 34 36 38 40 42 43 44 43
20 20 22 25 26 28 31 33 33 32 28 23 18 16 12 10 9 10 11 12 12 12 12 13 14 15 17 19 21 21 23 25 28 31 34 37 40 42 44 45 45 45
Wind_Direction
212 215 223 228 226 217 214 213 209 212 220 228 237 236 233 235 230 217 208 204 215 268 351 360 346 337 337 340 338 334 334 335 336 334 324 315 306 297 291 286 283 278
216 217 223 230 231 225 221 221 216 216 223 228 236 239 238 241 240 230 223 223 238 275 319 329 321 314 319 324 325 329 331 333 337 337 331 323 313 303 295 290 287 286
221 219 222 228 231 229 224 224 220 219 225 230 234 238 241 244 243 237 234 238 256 285 306 310 303 296 300 310 317 322 324 328 331 331 330 326 320 312 305 299 295 294
226 221 221 225 229 230 228 226 224 221 224 228 233 239 241 243 243 241 241 249 266 287 297 300 299 295 297 308 318 321 323 324 325 326 324 321 318 314 309 305 302 300
231 226 223 225 227 229 229 228 226 224 225 228 233 240 243 244 245 244 246 254 267 281 290 295 296 295 299 309 316 319 323 324 324 323 320 317 315 312 310 309 308 307
235 232 229 228 229 231 231 230 228 227 227 229 233 239 244 245 244 244 246 251 262 274 281 288 290 290 294 302 308 313 318 321 321 320 319 319 317 315 313 311 310 311
237 235 233 231 232 234 234 232 231 230 229 230 233 238 242 244 243 244 246 251 258 266 273 279 282 281 284 291 298 305 311 316 317 318 319 320 320 319 317 315 313 311
243 238 236 235 234 235 236 234 232 232 232 232 233 236 240 241 240 241 244 249 255 262 269 274 275 273 275 282 289 295 302 308 311 315 317 318 319 319 318 317 315 313
248 243 239 238 238 237 235 234 232 232 234 235 235 236 239 238 236 237 239 244 250 258 267 272 272 270 271 277 284 289 296 303 306 310 313 315 317 317 316 316 315 315
249 250 245 240 240 239 237 234 233 232 233 236 237 238 239 237 234 234 235 239 246 254 263 269 269 269 270 276 282 288 295 300 303 307 310 312 313 312 311 312 312 313
248 253 250 244 241 242 240 236 233 233 234 235 237 238 238 236 234 234 235 239 244 251 259 263 263 264 268 274 281 288 294 299 302 305 307 308 308 307 308 310 311 311
247 247 247 245 242 241 240 237 234 234 235 236 237 237 235 234 234 235 237 241 246 251 256 257 257 259 265 273 281 288 294 298 301 303 304 304 306 308 310 311 311 311
251 248 245 244 242 238 236 235 234 235 236 236 237 236 234 234 234 235 239 244 248 252 253 253 254 259 267 276 284 291 295 297 299 300 302 305 308 310 312 311 310 310
255 254 251 248 245 240 233 231 233 234 234 236 236 235 234 234 236 238 241 245 248 250 251 253 257 264 274 283 290 294 296 296 298 301 304 308 309 311 311 310 310 309
262 258 256 252 248 242 233 229 231 230 230 234 234 232 232 234 238 241 243 244 246 247 250 255 263 272 281 289 293 294 295 298 301 304 307 309 310 311 312 311 311 311
275 267 261 255 249 241 233 230 229 226 227 231 229 227 231 233 235 239 242 243 243 246 253 261 269 280 288 293 294 295 298 301 304 306 308 310 312 314 314 314 314 313
279 273 266 258 251 243 236 232 229 225 226 227 224 223 228 231 232 237 240 242 243 248 256 266 277 287 291 293 295 298 302 303 304 306 308 311 314 316 316 316 315 313
276 270 265 260 254 248 240 232 226 224 224 221 218 220 223 225 229 233 237 241 246 251 260 273 284 288 289 292 297 300 302 302 303 305 307 310 313 315 316 316 314 312
269 263 261 259 255 248 239 230 224 223 220 215 215 219 219 221 226 230 235 242 248 255 267 278 284 285 288 293 297 299 300 302 303 304 305 308 312 314 316 316 314 313
269 262 257 254 252 245 237 233 230 223 216 212 215 216 216 219 224 230 237 245 253 262 272 277 280 283 288 291 294 298 301 303 304 304 305 308 311 315 317 316 316 315
274 269 259 253 250 245 240 236 228 217 211 212 210 206 209 216 223 234 241 249 259 266 272 277 280 283 285 290 297 303 305 306 307 308 309 310 313 316 318 318 318 317
277 273 265 257 251 248 245 235 221 210 207 203 194 191 200 207 214 231 243 252 262 269 276 280 281 282 287 297 306 309 310 311 311 311 312 313 315 318 318 318 319 319
278 273 269 262 253 249 243 228 215 208 201 193 191 193 196 199 209 226 242 254 263 271 278 280 282 289 299 308 312 312 312 313 313 313 313 313 315 317 317 318 319 320
279 276 272 264 253 247 234 216 206 200 191 187 190 189 185 192 210 228 245 259 267 273 279 284 292 303 308 311 313 312 313 314 314 313 312 312 313 314 315 316 317 318
282 279 271 262 252 242 224 204 192 186 181 180 182 182 184 195 214 236 254 264 270 276 283 293 302 306 309 310 311 312 313 314 313 312 311 311 312 312 314 314 315 316
280 274 265 257 241 218 199 188 182 179 177 178 180 182 190 204 223 243 255 261 270 281 291 301 304 306 308 309 310 312 313 313 312 311 310 310 310 311 312 312 312 314